Time,TemperatureF,DewpointF,PressureIn,WindDirection,WindDirectionDegrees,WindSpeedMPH,WindSpeedGustMPH,Humidity,HourlyPrecipIn,Conditions,Clouds,dailyrainin,SoftwareType,DateUTC
2013-01-31 00:01:00,27.0,12.0,29.88,West,280,14.0,22.0,54,-99.99,,,-99.99,,2013-01-31 06:01:00,
2013-01-31 00:10:00,27.0,12.0,29.88,West,280,14.0,22.0,54,-99.99,,,-99.99,,2013-01-31 06:10:00,
2013-01-31 08:02:00,23.0,12.0,29.95,West,280,14.0,23.0,62,-99.99,,,-99.99,,2013-01-31 14:02:00,
2013-01-31 08:11:00,23.0,12.0,29.95,West,280,14.0,23.0,62,-99.99,,,-99.99,,2013-01-31 14:11:00,
2013-01-31 08:22:00,23.0,12.0,29.95,West,280,14.0,23.0,62,-99.99,,,-99.99,,2013-01-31 14:22:00,
2013-01-31 08:32:00,23.0,12.0,29.95,West,280,14.0,23.0,62,-99.99,,,-99.99,,2013-01-31 14:32:00,
2013-01-31 12:22:00,23.0,7.0,30.05,NW,310,12.0,-999.0,49,-99.99,,,-99.99,,2013-01-31 18:22:00,
2013-01-31 12:32:00,23.0,7.0,30.05,NW,310,12.0,-999.0,49,-99.99,,,-99.99,,2013-01-31 18:32:00,
2013-01-31 12:43:00,23.0,7.0,30.05,NW,310,12.0,-999.0,49,-99.99,,,-99.99,,2013-01-31 18:43:00,
2013-01-31 12:52:00,23.0,7.0,30.05,WNW,300,16.0,22.0,49,-99.99,,,-99.99,,2013-01-31 18:52:00,
2013-01-31 13:02:00,23.0,7.0,30.05,NW,310,16.0,22.0,49,-99.99,,,-99.99,,2013-01-31 19:02:00,
2013-01-31 13:12:00,23.0,7.0,30.05,NW,310,16.0,22.0,49,-99.99,,,-99.99,,2013-01-31 19:12:00,
2013-01-31 13:22:00,23.0,7.0,30.05,NW,310,18.0,25.0,49,-99.99,,,-99.99,,2013-01-31 19:22:00,
2013-01-31 13:32:00,23.0,5.0,30.06,WNW,290,17.0,25.0,45,-99.99,,,-99.99,,2013-01-31 19:32:00,
2013-01-31 13:42:00,21.0,5.0,30.06,WNW,300,22.0,29.0,48,-99.99,,,-99.99,,2013-01-31 19:42:00,
2013-01-31 13:52:00,21.0,5.0,30.07,WNW,290,17.0,25.0,48,-99.99,,,-99.99,,2013-01-31 19:52:00,
2013-01-31 14:02:00,21.0,3.0,30.08,WNW,300,22.0,28.0,45,-99.99,,,-99.99,,2013-01-31 20:02:00,
2013-01-31 14:11:00,21.0,3.0,30.08,WNW,300,22.0,28.0,45,-99.99,,,-99.99,,2013-01-31 20:11:00,
2013-01-31 14:21:00,21.0,3.0,30.08,WNW,300,22.0,28.0,45,-99.99,,,-99.99,,2013-01-31 20:21:00,
2013-01-31 14:31:00,19.0,3.0,30.10,WNW,300,22.0,32.0,48,-99.99,,,-99.99,,2013-01-31 20:31:00,
2013-01-31 14:42:00,21.0,3.0,30.11,NW,310,15.0,27.0,45,-99.99,,,-99.99,,2013-01-31 20:42:00,
2013-01-31 14:52:00,19.0,3.0,30.12,NW,310,18.0,29.0,48,-99.99,,,-99.99,,2013-01-31 20:52:00,
2013-01-31 15:02:00,19.0,3.0,30.12,NW,310,20.0,27.0,48,-99.99,,,-99.99,,2013-01-31 21:02:00,
2013-01-31 15:12:00,19.0,3.0,30.12,NW,310,20.0,27.0,48,-99.99,,,-99.99,,2013-01-31 21:12:00,
2013-01-31 15:21:00,19.0,3.0,30.13,WNW,300,20.0,27.0,48,-99.99,,,-99.99,,2013-01-31 21:21:00,
2013-01-31 15:32:00,19.0,1.0,30.14,NW,310,22.0,29.0,44,-99.99,,,-99.99,,2013-01-31 21:32:00,
2013-01-31 15:42:00,19.0,1.0,30.14,NW,310,22.0,29.0,44,-99.99,,,-99.99,,2013-01-31 21:42:00,
2013-01-31 15:52:00,18.0,3.0,30.15,NW,310,16.0,22.0,52,-99.99,,,-99.99,,2013-01-31 21:52:00,
2013-01-31 16:02:00,18.0,3.0,30.15,NW,310,16.0,22.0,52,-99.99,,,-99.99,,2013-01-31 22:02:00,
2013-01-31 16:11:00,18.0,3.0,30.15,NW,310,16.0,22.0,52,-99.99,,,-99.99,,2013-01-31 22:11:00,
2013-01-31 16:22:00,18.0,3.0,30.15,NW,310,16.0,22.0,52,-99.99,,,-99.99,,2013-01-31 22:22:00,
2013-01-31 19:32:00,12.0,-4.0,30.28,NW,310,23.0,29.0,47,-99.99,,,-99.99,,2013-02-01 01:32:00,
2013-01-31 19:42:00,10.0,-4.0,30.28,WNW,300,18.0,29.0,51,-99.99,,,-99.99,,2013-02-01 01:42:00,
2013-01-31 19:52:00,10.0,-4.0,30.29,WNW,300,24.0,30.0,51,-99.99,,,-99.99,,2013-02-01 01:52:00,
2013-01-31 20:02:00,10.0,-4.0,30.30,WNW,290,21.0,29.0,51,-99.99,,,-99.99,,2013-02-01 02:02:00,
2013-01-31 20:11:00,10.0,-4.0,30.30,WNW,290,21.0,29.0,51,-99.99,,,-99.99,,2013-02-01 02:11:00,
2013-01-31 20:21:00,10.0,-4.0,30.30,WNW,300,17.0,25.0,51,-99.99,,,-99.99,,2013-02-01 02:21:00,
2013-01-31 20:31:00,10.0,-4.0,30.31,WNW,290,22.0,28.0,51,-99.99,,,-99.99,,2013-02-01 02:31:00,
2013-01-31 20:41:00,10.0,-4.0,30.31,WNW,290,22.0,28.0,51,-99.99,,,-99.99,,2013-02-01 02:41:00,
2013-01-31 20:52:00,10.0,-6.0,30.32,WNW,300,14.0,24.0,47,-99.99,,,-99.99,,2013-02-01 02:52:00,
2013-01-31 21:01:00,10.0,-4.0,30.32,WNW,290,15.0,24.0,51,-99.99,,,-99.99,,2013-02-01 03:01:00,
2013-01-31 21:12:00,10.0,-4.0,30.32,WNW,290,15.0,24.0,51,-99.99,,,-99.99,,2013-02-01 03:12:00,
2013-01-31 21:21:00,10.0,-4.0,30.32,WNW,290,15.0,24.0,51,-99.99,,,-99.99,,2013-02-01 03:21:00,
2013-01-31 21:32:00,9.0,-4.0,30.33,WNW,290,17.0,24.0,55,-99.99,,,-99.99,,2013-02-01 03:32:00,
2013-01-31 21:41:00,9.0,-4.0,30.33,WNW,290,17.0,24.0,55,-99.99,,,-99.99,,2013-02-01 03:41:00,
2013-01-31 21:52:00,9.0,-4.0,30.33,WNW,290,17.0,24.0,55,-99.99,,,-99.99,,2013-02-01 03:52:00,
2013-01-31 22:02:00,9.0,-4.0,30.35,WNW,300,15.0,25.0,55,-99.99,,,-99.99,,2013-02-01 04:02:00,
2013-01-31 22:11:00,9.0,-4.0,30.35,WNW,300,15.0,25.0,55,-99.99,,,-99.99,,2013-02-01 04:11:00,
2013-01-31 22:21:00,9.0,-4.0,30.35,WNW,290,16.0,24.0,55,-99.99,,,-99.99,,2013-02-01 04:21:00,
2013-01-31 22:32:00,9.0,-4.0,30.36,West,280,14.0,23.0,55,-99.99,,,-99.99,,2013-02-01 04:32:00,
2013-01-31 22:41:00,9.0,-4.0,30.36,WNW,300,16.0,21.0,55,-99.99,,,-99.99,,2013-02-01 04:41:00,
2013-01-31 22:52:00,9.0,-4.0,30.36,WNW,290,15.0,21.0,55,-99.99,,,-99.99,,2013-02-01 04:52:00,
2013-01-31 23:03:00,9.0,-4.0,30.36,WNW,290,17.0,23.0,55,-99.99,,,-99.99,,2013-02-01 05:03:00,
2013-01-31 23:11:00,9.0,-4.0,30.36,WNW,290,17.0,23.0,55,-99.99,,,-99.99,,2013-02-01 05:11:00,
2013-01-31 23:22:00,9.0,-4.0,30.38,West,280,16.0,23.0,55,-99.99,,,-99.99,,2013-02-01 05:22:00,
2013-01-31 23:32:00,9.0,-4.0,30.38,WNW,290,15.0,22.0,55,-99.99,,,-99.99,,2013-02-01 05:32:00,
2013-01-31 23:41:00,9.0,-4.0,30.39,West,280,14.0,20.0,55,-99.99,,,-99.99,,2013-02-01 05:41:00,
2013-01-31 23:52:00,9.0,-4.0,30.39,West,280,13.0,20.0,55,-99.99,,,-99.99,,2013-02-01 05:52:00,